Time,TemperatureF,DewpointF,PressureIn,WindDirection,WindDirectionDegrees,WindSpeedMPH,WindSpeedGustMPH,Humidity,HourlyPrecipIn,Conditions,Clouds,dailyrainin,SoftwareType,DateUTC
2013-01-04 01:23:00,22.7,13.7,29.95,East,82,0.0,0.0,68,0.00,,,0.00,VWS V14.00,2013-01-04 06:23:00,
2013-01-04 01:24:00,22.7,13.7,29.95,East,82,0.0,1.0,68,0.00,,,0.00,VWS V14.00,2013-01-04 06:24:00,
2013-01-04 01:29:00,22.7,13.7,29.95,East,82,0.0,2.0,68,0.00,,,0.00,VWS V14.00,2013-01-04 06:29:00,
2013-01-04 01:34:00,22.9,14.3,29.95,ENE,74,0.0,3.0,69,0.00,,FEW060,0.00,VWS V14.00,2013-01-04 06:34:00,
2013-01-04 01:39:00,23.0,14.4,29.95,ENE,74,2.0,2.0,69,0.00,,FEW060,0.00,VWS V14.00,2013-01-04 06:39:00,
2013-01-04 01:44:00,23.3,14.6,29.95,ENE,74,1.0,2.0,69,0.00,,FEW060,0.00,VWS V14.00,2013-01-04 06:44:00,
2013-01-04 01:49:00,23.6,14.9,29.95,NE,53,0.0,1.0,69,0.00,,OVC065,0.00,VWS V14.00,2013-01-04 06:49:00,
2013-01-04 01:54:00,23.8,15.1,29.95,SSE,148,1.0,3.0,69,0.00,,OVC065,0.00,VWS V14.00,2013-01-04 06:54:00,
2013-01-04 01:59:00,24.1,15.8,29.95,WSW,246,2.0,3.0,70,0.00,,OVC065,0.00,VWS V14.00,2013-01-04 06:59:00,
2013-01-04 02:04:00,24.5,16.1,29.96,SW,222,0.0,0.0,70,0.00,,OVC065,0.00,VWS V14.00,2013-01-04 07:04:00,
2013-01-04 02:09:00,24.8,16.4,29.96,ESE,118,3.0,6.0,70,0.00,,OVC065,0.00,VWS V14.00,2013-01-04 07:09:00,
2013-01-04 02:14:00,25.3,16.9,29.96,SW,232,3.0,6.0,70,0.00,,OVC065,0.00,VWS V14.00,2013-01-04 07:14:00,
2013-01-04 02:19:00,25.7,17.0,29.95,SW,232,0.0,1.0,69,0.00,,OVC065,0.00,VWS V14.00,2013-01-04 07:19:00,
2013-01-04 02:24:00,25.8,17.0,29.95,SSW,212,4.0,5.0,69,0.00,,OVC065,0.00,VWS V14.00,2013-01-04 07:24:00,
2013-01-04 02:29:00,26.3,17.5,29.95,WSW,238,4.0,6.0,69,0.00,,OVC065,0.00,VWS V14.00,2013-01-04 07:29:00,
2013-01-04 02:34:00,26.6,17.5,29.95,West,259,0.0,2.0,68,0.00,,OVC065,0.00,VWS V14.00,2013-01-04 07:34:00,
2013-01-04 02:39:00,26.9,17.8,29.95,WSW,257,2.0,2.0,68,0.00,,OVC065,0.00,VWS V14.00,2013-01-04 07:39:00,
2013-01-04 02:44:00,27.3,17.8,29.95,West,268,2.0,2.0,67,0.00,,OVC065,0.00,VWS V14.00,2013-01-04 07:44:00,
2013-01-04 02:49:00,27.8,18.3,29.95,SW,221,2.0,2.0,67,0.00,,BKN070,0.00,VWS V14.00,2013-01-04 07:49:00,
2013-01-04 02:54:00,27.9,18.0,29.95,West,267,1.0,4.0,66,0.00,,BKN070,0.00,VWS V14.00,2013-01-04 07:54:00,
2013-01-04 02:59:00,28.1,18.2,29.95,West,271,2.0,3.0,66,0.00,,BKN070,0.00,VWS V14.00,2013-01-04 07:59:00,
2013-01-04 03:04:00,28.4,18.1,29.94,West,273,3.0,7.0,65,0.00,,BKN070,0.00,VWS V14.00,2013-01-04 08:04:00,
2013-01-04 03:09:00,28.7,18.4,29.94,WSW,245,3.0,7.0,65,0.00,,BKN070,0.00,VWS V14.00,2013-01-04 08:09:00,
2013-01-04 03:14:00,29.0,18.4,29.94,WNW,288,3.0,4.0,64,0.00,,BKN070,0.00,VWS V14.00,2013-01-04 08:14:00,
2013-01-04 03:19:00,29.1,18.5,29.94,SSW,203,7.0,7.0,64,0.00,,BKN070,0.00,VWS V14.00,2013-01-04 08:19:00,
2013-01-04 03:24:00,29.3,18.6,29.94,SW,232,3.0,6.0,64,0.00,,BKN070,0.00,VWS V14.00,2013-01-04 08:24:00,
2013-01-04 03:29:00,29.4,18.7,29.94,WNW,294,13.0,13.0,64,0.00,,BKN070,0.00,VWS V14.00,2013-01-04 08:29:00,
2013-01-04 03:34:00,29.4,18.7,29.94,SSW,198,2.0,3.0,64,0.00,,BKN070,0.00,VWS V14.00,2013-01-04 08:34:00,
2013-01-04 03:39:00,29.4,18.7,29.94,West,265,3.0,11.0,64,0.00,,BKN070,0.00,VWS V14.00,2013-01-04 08:39:00,
2013-01-04 03:44:00,29.5,18.8,29.94,WNW,296,9.0,9.0,64,0.00,,BKN070,0.00,VWS V14.00,2013-01-04 08:44:00,
2013-01-04 03:49:00,29.5,18.8,29.94,WNW,286,3.0,12.0,64,0.00,,OVC065,0.00,VWS V14.00,2013-01-04 08:49:00,
2013-01-04 03:54:00,29.7,18.7,29.94,WNW,293,14.0,18.0,63,0.00,,OVC065,0.00,VWS V14.00,2013-01-04 08:54:00,
2013-01-04 03:59:00,29.7,18.7,29.94,WSW,248,6.0,9.0,63,0.00,,OVC065,0.00,VWS V14.00,2013-01-04 08:59:00,
2013-01-04 04:04:00,29.7,19.0,29.94,WNW,289,3.0,7.0,64,0.00,,OVC065,0.00,VWS V14.00,2013-01-04 09:04:00,
2013-01-04 04:09:00,29.7,19.0,29.94,WSW,248,5.0,11.0,64,0.00,,OVC065,0.00,VWS V14.00,2013-01-04 09:09:00,
2013-01-04 04:14:00,29.7,19.0,29.94,WNW,290,9.0,9.0,64,0.00,,OVC065,0.00,VWS V14.00,2013-01-04 09:14:00,
2013-01-04 04:20:00,29.5,18.8,29.94,West,273,4.0,5.0,64,0.00,,OVC065,0.00,VWS V14.00,2013-01-04 09:20:00,
2013-01-04 04:25:00,29.5,18.8,29.94,SW,236,9.0,9.0,64,0.00,,OVC065,0.00,VWS V14.00,2013-01-04 09:25:00,
2013-01-04 04:30:00,29.5,19.2,29.94,West,261,6.0,10.0,65,0.00,,OVC065,0.00,VWS V14.00,2013-01-04 09:30:00,
2013-01-04 04:34:00,29.5,19.2,29.94,WNW,282,5.0,12.0,65,0.00,,OVC065,0.00,VWS V14.00,2013-01-04 09:34:00,
2013-01-04 04:40:00,29.4,19.1,29.94,SSW,212,3.0,7.0,65,0.00,,OVC065,0.00,VWS V14.00,2013-01-04 09:40:00,
2013-01-04 04:44:00,29.4,19.1,29.93,West,268,7.0,7.0,65,0.00,,OVC065,0.00,VWS V14.00,2013-01-04 09:44:00,
2013-01-04 04:50:00,29.4,19.5,29.93,West,259,3.0,6.0,66,0.00,,OVC065,0.00,VWS V14.00,2013-01-04 09:50:00,
2013-01-04 04:55:00,29.4,19.5,29.93,West,276,3.0,14.0,66,0.00,,OVC065,0.00,VWS V14.00,2013-01-04 09:55:00,
2013-01-04 05:00:00,29.4,19.5,29.94,West,281,10.0,13.0,66,0.00,,OVC065,0.00,VWS V14.00,2013-01-04 10:00:00,
2013-01-04 05:05:00,29.4,19.5,29.94,West,281,10.0,10.0,66,0.00,,OVC065,0.00,VWS V14.00,2013-01-04 10:05:00,
2013-01-04 05:10:00,29.4,19.5,29.94,WSW,256,8.0,11.0,66,0.00,,OVC065,0.00,VWS V14.00,2013-01-04 10:10:00,
2013-01-04 05:15:00,29.4,19.8,29.94,West,259,3.0,13.0,67,0.00,,OVC065,0.00,VWS V14.00,2013-01-04 10:15:00,
2013-01-04 05:20:00,29.4,19.8,29.94,SSW,205,3.0,10.0,67,0.00,,OVC065,0.00,VWS V14.00,2013-01-04 10:20:00,
2013-01-04 05:25:00,29.4,19.8,29.94,SW,232,4.0,6.0,67,0.00,,OVC065,0.00,VWS V14.00,2013-01-04 10:25:00,